| time (UTC) | temp F | wind direction | speed MPH | gust MPH | rain 1hr in | rain 24hr in | rain mn in | humidity % | barometer mb |
| 20260510064523 | 51 | 255 | 6.0 | 11.0 | 0.02 | 0.24 | 0.07 | 94 | 1009.7 |
| 20260510063023 | 51 | 244 | 3.0 | 6.0 | 0.01 | 0.22 | 0.05 | 94 | 1009.6 |
| 20260510061521 | 51 | 257 | 1.0 | 2.0 | 0.01 | 0.22 | 0.05 | 93 | 1009.6 |
| 20260510060019 | 51 | 213 | 0.0 | 2.0 | 0.01 | 0.22 | 0.05 | 92 | 1009.3 |
| 20260510054516 | 51 | 213 | 0.0 | 2.0 | 0.03 | 0.22 | 0.05 | 92 | 1009.4 |
| 20260510053041 | 52 | 257 | 1.0 | 2.0 | 0.04 | 0.21 | 0.04 | 91 | 1009.6 |
| 20260510051512 | 52 | 295 | 1.0 | 4.0 | 0.04 | 0.21 | 0.04 | 90 | 1009.9 |
| 20260510050009 | 53 | 154 | 3.0 | 6.0 | 0.04 | 0.21 | 0.04 | 87 | 1009.7 |
| 20260510044505 | 54 | 159 | 2.0 | 4.0 | 0.02 | 0.19 | 0.02 | 84 | 1010.1 |
| 20260510043004 | 55 | 260 | 2.0 | 11.0 | 0.00 | 0.17 | 0.00 | 81 | 1010.4 |
| 20260510041501 | 55 | 286 | 3.0 | 7.0 | 0.00 | 0.17 | 0.00 | 80 | 1010.4 |
| 20260510040058 | 54 | 321 | 3.0 | 10.0 | 0.00 | 0.17 | 0.00 | 81 | 1010.3 |
| 20260510034559 | 53 | 323 | 2.0 | 10.0 | 0.00 | 0.17 | 0.17 | 87 | 1010.1 |
| 20260510033112 | 51 | 322 | 3.0 | 7.0 | 0.00 | 0.17 | 0.17 | 91 | 1010.0 |
| 20260510031557 | 50 | 256 | 0.0 | 2.0 | 0.00 | 0.17 | 0.17 | 95 | 1009.1 |
| 20260510030058 | 48 | 38 | 0.0 | 2.0 | 0.00 | 0.17 | 0.17 | 93 | 1008.8 |
| 20260510024601 | 49 | 198 | 0.0 | 0.0 | 0.00 | 0.17 | 0.17 | 92 | 1008.5 |
| 20260510023055 | 49 | 198 | 0.0 | 0.0 | 0.00 | 0.17 | 0.17 | 91 | 1008.2 |
| 20260510021557 | 50 | 198 | 0.0 | 2.0 | 0.00 | 0.17 | 0.17 | 92 | 1007.9 |
| 20260510020057 | 50 | 198 | 0.0 | 1.0 | 0.00 | 0.17 | 0.17 | 92 | 1007.9 |
| 20260510014554 | 50 | 198 | 0.0 | 0.0 | 0.00 | 0.17 | 0.17 | 91 | 1008.0 |
| 20260510013154 | 51 | 198 | 0.0 | 2.0 | 0.00 | 0.17 | 0.17 | 89 | 1008.0 |
| 20260510011554 | 52 | 198 | 0.0 | 0.0 | 0.00 | 0.17 | 0.17 | 87 | 1007.9 |
| 20260510010052 | 54 | 198 | 0.0 | 2.0 | 0.00 | 0.17 | 0.17 | 84 | 1007.4 |
| 20260510004553 | 56 | 198 | 0.0 | 3.0 | 0.00 | 0.17 | 0.17 | 81 | 1007.2 |
| 20260510003052 | 57 | 214 | 1.0 | 5.0 | 0.00 | 0.17 | 0.17 | 79 | 1007.3 |
| 20260510001551 | 58 | 187 | 1.0 | 5.0 | 0.00 | 0.17 | 0.17 | 77 | 1007.2 |
| 20260510000057 | 59 | 230 | 2.0 | 6.0 | 0.00 | 0.17 | 0.17 | 75 | 1007.2 |
| 20260509234549 | 60 | 201 | 2.0 | 6.0 | 0.00 | 0.17 | 0.17 | 74 | 1006.9 |
| 20260509233049 | 61 | 214 | 4.0 | 11.0 | 0.00 | 0.17 | 0.17 | 72 | 1006.6 |
| 20260509231549 | 63 | 277 | 5.0 | 11.0 | 0.00 | 0.17 | 0.17 | 64 | 1006.5 |
| 20260509230050 | 64 | 200 | 5.0 | 11.0 | 0.00 | 0.17 | 0.17 | 64 | 1006.3 |
| 20260509224546 | 64 | 216 | 3.0 | 10.0 | 0.00 | 0.17 | 0.17 | 65 | 1006.4 |
| 20260509223042 | 62 | 205 | 4.0 | 10.0 | 0.00 | 0.17 | 0.17 | 68 | 1006.7 |
| 20260509221541 | 62 | 211 | 7.0 | 10.0 | 0.00 | 0.17 | 0.17 | 68 | 1006.9 |
| 20260509220040 | 63 | 244 | 3.0 | 9.0 | 0.00 | 0.17 | 0.17 | 70 | 1006.9 |
| 20260509214552 | 62 | 232 | 5.0 | 11.0 | 0.00 | 0.17 | 0.17 | 70 | 1006.7 |
| 20260509213037 | 62 | 221 | 6.0 | 11.0 | 0.00 | 0.17 | 0.17 | 71 | 1006.7 |
| 20260509211559 | 62 | 223 | 7.0 | 13.0 | 0.00 | 0.17 | 0.17 | 72 | 1006.8 |
| 20260509210106 | 61 | 213 | 6.0 | 15.0 | 0.00 | 0.17 | 0.17 | 74 | 1007.0 |
| 20260509204554 | 61 | 186 | 5.0 | 12.0 | 0.00 | 0.17 | 0.17 | 76 | 1007.0 |
| 20260509203100 | 61 | 194 | 7.0 | 15.0 | 0.00 | 0.17 | 0.17 | 78 | 1007.2 |
| 20260509201548 | 59 | 184 | 5.0 | 10.0 | 0.00 | 0.17 | 0.17 | 81 | 1007.5 |
| 20260509200046 | 58 | 242 | 3.0 | 10.0 | 0.00 | 0.17 | 0.17 | 83 | 1007.6 |
| 20260509194549 | 59 | 236 | 6.0 | 16.0 | 0.00 | 0.17 | 0.17 | 84 | 1007.9 |
| 20260509193041 | 58 | 219 | 8.0 | 13.0 | 0.00 | 0.17 | 0.17 | 86 | 1008.2 |
| 20260509191553 | 57 | 219 | 5.0 | 10.0 | 0.00 | 0.17 | 0.17 | 93 | 1008.2 |
| 20260509190033 | 54 | 206 | 4.0 | 9.0 | 0.00 | 0.17 | 0.17 | 92 | 1008.4 |
| 20260509184543 | 54 | 196 | 3.0 | 8.0 | 0.00 | 0.17 | 0.17 | 93 | 1008.6 |
| 20260509183045 | 53 | 206 | 5.0 | 9.0 | 0.00 | 0.17 | 0.17 | 92 | 1008.6 |
| 20260509181532 | 54 | 252 | 4.0 | 9.0 | 0.00 | 0.17 | 0.17 | 92 | 1008.6 |
| 20260509180030 | 54 | 211 | 4.0 | 9.0 | 0.00 | 0.17 | 0.17 | 92 | 1008.5 |
| 20260509174530 | 54 | 185 | 5.0 | 9.0 | 0.01 | 0.17 | 0.17 | 92 | 1008.4 |
| 20260509173029 | 53 | 200 | 3.0 | 9.0 | 0.01 | 0.17 | 0.17 | 93 | 1008.5 |
| 20260509171530 | 54 | 216 | 4.0 | 10.0 | 0.02 | 0.17 | 0.17 | 93 | 1008.4 |
| 20260509170025 | 53 | 221 | 4.0 | 10.0 | 0.03 | 0.17 | 0.17 | 93 | 1008.3 |
| 20260509164522 | 53 | 226 | 4.0 | 7.0 | 0.04 | 0.16 | 0.16 | 93 | 1008.3 |
| 20260509163032 | 52 | 211 | 6.0 | 13.0 | 0.04 | 0.16 | 0.16 | 93 | 1008.3 |
| 20260509161520 | 52 | 186 | 3.0 | 7.0 | 0.04 | 0.15 | 0.15 | 93 | 1008.3 |
| 20260509160018 | 52 | 221 | 2.0 | 6.0 | 0.03 | 0.14 | 0.14 | 93 | 1008.3 |
| 20260509154516 | 52 | 194 | 3.0 | 7.0 | 0.02 | 0.12 | 0.12 | 92 | 1008.3 |
| 20260509153017 | 52 | 202 | 3.0 | 7.0 | 0.02 | 0.12 | 0.12 | 92 | 1008.6 |
| 20260509151508 | 52 | 210 | 2.0 | 6.0 | 0.02 | 0.11 | 0.11 | 93 | 1008.6 |
| 20260509150010 | 52 | 205 | 2.0 | 5.0 | 0.02 | 0.11 | 0.11 | 93 | 1008.6 |
| 20260509144504 | 51 | 208 | 2.0 | 6.0 | 0.02 | 0.10 | 0.10 | 93 | 1008.7 |
| 20260509143001 | 51 | 222 | 0.0 | 4.0 | 0.03 | 0.10 | 0.10 | 93 | 1008.7 |
| 20260509141558 | 51 | 223 | 1.0 | 6.0 | 0.02 | 0.09 | 0.09 | 93 | 1008.8 |
| 20260509140055 | 50 | 189 | 3.0 | 7.0 | 0.03 | 0.09 | 0.09 | 93 | 1008.9 |
| 20260509134554 | 50 | 207 | 1.0 | 3.0 | 0.03 | 0.08 | 0.08 | 94 | 1008.9 |
| 20260509133050 | 49 | 223 | 1.0 | 4.0 | 0.03 | 0.07 | 0.07 | 93 | 1008.9 |
| 20260509131551 | 49 | 281 | 1.0 | 4.0 | 0.03 | 0.07 | 0.07 | 94 | 1008.9 |
| 20260509130058 | 49 | 212 | 0.0 | 2.0 | 0.03 | 0.06 | 0.06 | 93 | 1008.9 |
| 20260509124552 | 49 | 204 | 1.0 | 2.0 | 0.02 | 0.05 | 0.05 | 93 | 1009.1 |
| 20260509123045 | 48 | 205 | 0.0 | 1.0 | 0.01 | 0.04 | 0.04 | 93 | 1009.1 |
| 20260509121545 | 48 | 205 | 0.0 | 0.0 | 0.01 | 0.04 | 0.04 | 94 | 1009.3 |
| 20260509120040 | 48 | 205 | 0.0 | 2.0 | 0.01 | 0.03 | 0.03 | 93 | 1009.4 |
| 20260509114508 | 48 | 212 | 1.0 | 3.0 | 0.01 | 0.03 | 0.03 | 94 | 1009.5 |
| 20260509113005 | 47 | 189 | 0.0 | 2.0 | 0.01 | 0.03 | 0.03 | 94 | 1009.7 |
| 20260509111504 | 47 | 195 | 0.0 | 2.0 | 0.01 | 0.03 | 0.03 | 94 | 1009.7 |
| 20260509110003 | 47 | 196 | 0.0 | 2.0 | 0.01 | 0.02 | 0.02 | 94 | 1009.8 |
| 20260509104508 | 47 | 196 | 0.0 | 2.0 | 0.01 | 0.02 | 0.02 | 94 | 1009.6 |
| 20260509103104 | 47 | 218 | 0.0 | 2.0 | 0.01 | 0.02 | 0.02 | 94 | 1009.7 |
| 20260509101613 | 47 | 228 | 2.0 | 3.0 | 0.01 | 0.02 | 0.02 | 94 | 1009.7 |
| 20260509100056 | 47 | 207 | 1.0 | 3.0 | 0.00 | 0.01 | 0.01 | 94 | 1009.6 |
| 20260509094604 | 47 | 154 | 0.0 | 0.0 | 0.00 | 0.01 | 0.01 | 93 | 1009.4 |
| 20260509093055 | 47 | 154 | 0.0 | 0.0 | 0.00 | 0.01 | 0.01 | 93 | 1009.3 |
| 20260509091601 | 47 | 154 | 0.0 | 0.0 | 0.00 | 0.01 | 0.01 | 93 | 1009.4 |
| 20260509090101 | 47 | 154 | 1.0 | 2.0 | 0.00 | 0.01 | 0.01 | 93 | 1009.5 |
| 20260509084555 | 47 | 132 | 0.0 | 1.0 | 0.00 | 0.01 | 0.01 | 93 | 1009.4 |
| 20260509083058 | 47 | 132 | 0.0 | 1.0 | 0.00 | 0.01 | 0.01 | 93 | 1009.5 |
| 20260509081550 | 47 | 132 | 0.0 | 1.0 | 0.00 | 0.01 | 0.01 | 93 | 1009.3 |
| 20260509080052 | 47 | 132 | 0.0 | 1.0 | 0.00 | 0.01 | 0.01 | 93 | 1009.5 |
| 20260509074552 | 47 | 149 | 0.0 | 2.0 | 0.00 | 0.01 | 0.01 | 92 | 1009.6 |
| 20260509073050 | 47 | 149 | 0.0 | 1.0 | 0.00 | 0.01 | 0.01 | 92 | 1009.6 |
| 20260509071546 | 47 | 150 | 2.0 | 3.0 | 0.01 | 0.01 | 0.01 | 92 | 1009.6 |
| 20260509070043 | 47 | 80 | 0.0 | 1.0 | 0.01 | 0.01 | 0.01 | 91 | 1009.6 |